Location: Unspecified
(48.8656°N, 0.0000°E)
Time: 14:06:46
(UTC+00:00)

Altair - Pass Details

Date: 25 June 2019
Orbit: 1501 x 1683 km, 47.2° (Epoch: 15 July)

Event Time Altitude Azimuth Distance (km) Brightness Sun altitude
Rises 01:52:08 0° 290° (WNW) 4,849 10.1 -13.7°
Reaches altitude 10° 01:55:39 10° 281° (W) 3,883 9.5 -13.4°
Maximum altitude 02:04:01 32° 224° (SW) 2,577 8.2 -12.8°
Drops below altitude 10° 02:12:31 10° 166° (SSE) 3,936 9.2 -12.1°
Sets 02:16:08 0° 157° (SSE) 4,923 9.8 -11.8°
